EDSBLKKV

Guest
Details From EDSB - Karlsruhe Baden Baden
To LKKV - Karlovy Vary
Flight Number -
Tags decoded
Created
Modified
Stats Distance 286 nm / 530 km
Max Altitude 0 ft / 0 m
Waypoints 4
Social Downloads 0
Likes 0
Share VATSIM

Download

Looking for another format? Having issues loading an existing format? Contact us
Advertisement - Login to hide

Notes

Requested: EDSB MILKA BAY LKKV

Route

EDSB MILKA BAY LKKV

ID Type Via Altitude Latitude Longitude Leg Dist Tot Dist Heading (true) Name
O EDSB APT - 0 ft / 0 m 48.77926˚ 8.08064˚ - 0 nm - Karlsruhe Baden Baden
MILKA FIX - 0 ft / 0 m 47.83755˚ 9.62418˚ 83 nm 83 nm 132° / 133° -
BAY VOR - 0 ft / 0 m 49.98515˚ 11.63667˚ 151 nm 235 nm 31° / 32° BAYREUTH VOR
O LKKV APT - 0 ft / 0 m 50.20349˚ 12.91446˚ 50 nm 286 nm 75° / 76° Karlovy Vary

Altitude Profile

Advertisement - Login to hide

Weather


0- 5 10 15 20 25 30 35+ Temperature / ° C

Clouds and Precipitation
Forecast for 2018-05-22 12:00 UTC. Updated 3 hours ago

Ground ~20,000 ft ~40,000 ft Winds

EDSB

Details ICAO EDSB (FKB)
Name Karlsruhe Baden Baden
Region Germany - Civil
Timezone Europe/Berlin (UTC+2.0)
Stats Elevation 408 ft / 124 m (AMSL)
Location 48.779257° 8.080642°
Runways 1
Magnetic Variation 2.278° E

METAR

EDSB 221420Z 01007KT 340V040 6000 TSRA FEW012CB SCT032 BKN050 22/13 Q1012

Decode

TAF

TAF EDSB 221100Z 2212/2312 VRB03KT CAVOK PROB40 TEMPO 2212/2312 TSRA SCT040CB PROB30 TEMPO 2213/2219 06015G25KT 2000 TSRAGR SCT015 BKN030CB

Decode

Departure Runways

ID Width Length Bearing (true) Bearing (mag) Surface Threshold Offset Overrun Length
03 148 ft / 45 m 9,799 ft / 2,987 m 31.69° 29.41° Asphalt 830 ft / 253 m 115 ft / 35 m
21 148 ft / 45 m 9,799 ft / 2,987 m 211.70° 209.42° Asphalt 830 ft / 253 m 115 ft / 35 m

LKKV

Details ICAO LKKV (KLV)
Name Karlovy Vary
Region Czech Republic
Timezone Europe/Prague (UTC+2.0)
Stats Elevation 1,988 ft / 606 m (AMSL)
Location 50.203487° 12.914461°
Runways 2
Magnetic Variation 3.577° E

METAR

LKKV 221430Z 05009KT 010V080 CAVOK 20/07 Q1014

Decode

TAF

TAF LKKV 221100Z 2212/2318 07008KT CAVOK TEMPO 2212/2222 8000 SHRA SCT040TCU TEMPO 2310/2318 03014KT 6000 SHRA SCT027TCU PROB30 TEMPO 2314/2318 SCT020CB

Decode

Destination Runways

ID Width Length Bearing (true) Bearing (mag) Surface Threshold Offset Overrun Length
11 98 ft / 30 m 7,049 ft / 2,149 m 113.09° 109.51° Asphalt 495 ft / 151 m 0 ft / 0 m
12 98 ft / 30 m 3,351 ft / 1,021 m 113.19° 109.61° Grass 0 ft / 0 m 0 ft / 0 m
29 98 ft / 30 m 7,049 ft / 2,149 m 293.11° 289.53° Asphalt 0 ft / 0 m 0 ft / 0 m
30 98 ft / 30 m 3,351 ft / 1,021 m 293.20° 289.62° Grass 0 ft / 0 m 0 ft / 0 m

Approach Navaids

Runway Type Ident Frequency Range Bearing (true) Bearing (mag) Slope Elevation
29 Localiser KVY 111.55 MHz 18 nm / 33 km 293.13° 289.56° - 1,988 ft / 606 m (AMSL)
29 DME KVY 111.55 MHz 18 nm / 33 km - - - 1,998 ft / 609 m (AMSL)

Popular Alternatives